Location: Rounton
(54.4000°N, 1.3500°W)
Time: 14:54:40
(UTC+00:00)

Transit 4A - Pass Details

Date: 02 December 2021
Orbit: 864 x 981 km, 66.8° (Epoch: 20 January)

Event Time Altitude Azimuth Distance (km) Brightness Sun altitude
Rises 02:48:27 0° 315° (NW) 3,575 - -44.1°
Reaches altitude 10° 02:51:03 10° 321° (NW) 2,647 - -43.8°
Maximum altitude 02:57:04 51° 36° (NE) 1,190 - -43.0°
Exits shadow 03:01:29 19° 106° (ESE) 2,124 10.1 -42.4°
Drops below altitude 10° 03:03:13 10° 112° (ESE) 2,708 10.7 -42.2°
Sets 03:05:53 0° 118° (ESE) 3,663 11.4 -41.8°
